When you browse on this site, cookies collect data to enhance your experience and personalize the content and advertising you see.
Visit our Privacy Policy to learn more. By continuing to use the site, you agree to this use of cookies and data.

Stündliche Wetter Sumgayit

Heute, 13 Juli, Montag

Zeit Temperatur Niederschläge Wind Luftdruck Luftfeuchtigkeit
00:00 +26°C° 0 mm 2 m/S 733 mmHg 61%
01:00 +25°C° 0 mm 2 m/S 732 mmHg 62%
02:00 +25°C° 0 mm 2 m/S 732 mmHg 63%
03:00 +25°C° 0 mm 2 m/S 732 mmHg 63%
04:00 +25°C° 0 mm 2 m/S 732 mmHg 61%
05:00 +26°C° 0 mm 2 m/S 732 mmHg 60%
06:00 +26°C° 0 mm 2 m/S 732 mmHg 58%
07:00 +28°C° 0 mm 3 m/S 732 mmHg 53%
08:00 +29°C° 0 mm 4 m/S 732 mmHg 49%
09:00 +32°C° 0 mm 5 m/S 732 mmHg 45%
10:00 +32°C° 0 mm 5 m/S 732 mmHg 44%
11:00 +33°C° 0 mm 6 m/S 732 mmHg 43%
12:00 +33°C° 0 mm 6 m/S 732 mmHg 42%
13:00 +33°C° 0 mm 5 m/S 731 mmHg 44%
14:00 +33°C° 0 mm 5 m/S 731 mmHg 46%
15:00 +32°C° 0 mm 5 m/S 731 mmHg 48%
16:00 +32°C° 0 mm 5 m/S 730 mmHg 50%
17:00 +30°C° 0 mm 5 m/S 730 mmHg 52%
18:00 +30°C° 0 mm 5 m/S 730 mmHg 54%
19:00 +29°C° 0 mm 5 m/S 730 mmHg 59%
20:00 +28°C° 0 mm 4 m/S 731 mmHg 64%
21:00 +27°C° 0 mm 4 m/S 731 mmHg 69%
22:00 +27°C° 0 mm 4 m/S 731 mmHg 67%
23:00 +28°C° 0 mm 3 m/S 731 mmHg 64%

Morgen, 14 Juli, Dienstag

Zeit Temperatur Niederschläge Wind Luftdruck Luftfeuchtigkeit
00:00 +28°C° 0 mm 3 m/S 731 mmHg 61%
01:00 +27°C° 0 mm 3 m/S 731 mmHg 63%
02:00 +27°C° 0 mm 2 m/S 731 mmHg 64%
03:00 +27°C° 0 mm 2 m/S 731 mmHg 66%
04:00 +27°C° 0 mm 2 m/S 732 mmHg 64%
05:00 +27°C° 0 mm 1 m/S 732 mmHg 62%
06:00 +28°C° 0 mm 1 m/S 733 mmHg 61%
07:00 +29°C° 0 mm 2 m/S 733 mmHg 56%
08:00 +30°C° 0 mm 2 m/S 733 mmHg 51%
09:00 +31°C° 0 mm 3 m/S 734 mmHg 46%
10:00 +32°C° 0 mm 4 m/S 734 mmHg 46%
11:00 +33°C° 0 mm 5 m/S 734 mmHg 45%
12:00 +34°C° 0 mm 6 m/S 734 mmHg 44%
13:00 +33°C° 0 mm 7 m/S 734 mmHg 45%
14:00 +33°C° 0 mm 8 m/S 734 mmHg 45%
15:00 +33°C° 0 mm 10 m/S 734 mmHg 46%
16:00 +33°C° 0 mm 10 m/S 734 mmHg 47%
17:00 +32°C° 0 mm 10 m/S 734 mmHg 49%
18:00 +31°C° 0 mm 10 m/S 735 mmHg 50%
19:00 +31°C° 0.1 mm 9 m/S 735 mmHg 50%
20:00 +29°C° 0.1 mm 8 m/S 735 mmHg 50%
21:00 +29°C° 0.1 mm 7 m/S 736 mmHg 50%
22:00 +29°C° 0.5 mm 6 m/S 736 mmHg 52%
23:00 +29°C° 0.5 mm 6 m/S 736 mmHg 53%

übermorgen, 15 Juli, Mittwoch

Zeit Temperatur Niederschläge Wind Luftdruck Luftfeuchtigkeit
00:00 +28°C° 0.5 mm 5 m/S 736 mmHg 55%
01:00 +28°C° 0.1 mm 4 m/S 736 mmHg 54%
02:00 +28°C° 0.1 mm 4 m/S 736 mmHg 54%
03:00 +28°C° 0.1 mm 3 m/S 736 mmHg 54%
04:00 +28°C° 0 mm 3 m/S 736 mmHg 55%
05:00 +29°C° 0 mm 3 m/S 737 mmHg 55%
06:00 +29°C° 0 mm 3 m/S 737 mmHg 55%
07:00 +30°C° 0 mm 3 m/S 737 mmHg 50%
08:00 +31°C° 0 mm 3 m/S 737 mmHg 45%
09:00 +33°C° 0 mm 4 m/S 738 mmHg 40%
10:00 +33°C° 0 mm 5 m/S 737 mmHg 38%
11:00 +34°C° 0 mm 5 m/S 737 mmHg 36%
12:00 +35°C° 0 mm 6 m/S 737 mmHg 34%
13:00 +35°C° 0 mm 7 m/S 737 mmHg 34%
14:00 +35°C° 0 mm 9 m/S 737 mmHg 35%
15:00 +36°C° 0 mm 10 m/S 737 mmHg 35%
16:00 +34°C° 0 mm 10 m/S 737 mmHg 36%
17:00 +34°C° 0 mm 10 m/S 736 mmHg 37%
18:00 +33°C° 0 mm 9 m/S 736 mmHg 37%
19:00 +33°C° 0 mm 8 m/S 737 mmHg 38%
20:00 +32°C° 0 mm 7 m/S 737 mmHg 40%
21:00 +32°C° 0 mm 6 m/S 737 mmHg 41%
22:00 +30°C° 0 mm 5 m/S 737 mmHg 44%
23:00 +29°C° 0 mm 5 m/S 737 mmHg 46%

16 Juli, Donnerstag

Zeit Temperatur Niederschläge Wind Luftdruck Luftfeuchtigkeit
00:00 +29°C° 0 mm 4 m/S 736 mmHg 49%
01:00 +29°C° 0 mm 3 m/S 736 mmHg 50%
02:00 +28°C° 0 mm 3 m/S 736 mmHg 52%
03:00 +28°C° 0 mm 3 m/S 736 mmHg 53%
04:00 +28°C° 0 mm 4 m/S 736 mmHg 51%
05:00 +28°C° 0 mm 5 m/S 736 mmHg 50%
06:00 +29°C° 0 mm 5 m/S 736 mmHg 48%
07:00 +30°C° 0 mm 6 m/S 736 mmHg 44%
08:00 +32°C° 0 mm 6 m/S 736 mmHg 39%
09:00 +34°C° 0 mm 6 m/S 736 mmHg 35%
10:00 +34°C° 0 mm 7 m/S 736 mmHg 35%
11:00 +34°C° 0 mm 8 m/S 736 mmHg 36%
12:00 +35°C° 0 mm 8 m/S 736 mmHg 36%
13:00 +34°C° 0 mm 9 m/S 736 mmHg 38%
14:00 +34°C° 0 mm 10 m/S 735 mmHg 39%
15:00 +34°C° 0 mm 11 m/S 735 mmHg 41%
16:00 +33°C° 0 mm 11 m/S 735 mmHg 44%
17:00 +32°C° 0 mm 12 m/S 735 mmHg 47%
18:00 +31°C° 0 mm 12 m/S 735 mmHg 50%
19:00 +31°C° 0 mm 11 m/S 735 mmHg 49%
20:00 +29°C° 0 mm 11 m/S 735 mmHg 47%
21:00 +29°C° 0 mm 10 m/S 736 mmHg 46%
22:00 +28°C° 0 mm 9 m/S 736 mmHg 46%
23:00 +28°C° 0 mm 8 m/S 735 mmHg 46%

17 Juli, Freitag

Zeit Temperatur Niederschläge Wind Luftdruck Luftfeuchtigkeit
00:00 +28°C° 0 mm 8 m/S 735 mmHg 45%
01:00 +28°C° 0 mm 7 m/S 735 mmHg 47%
02:00 +27°C° 0 mm 6 m/S 735 mmHg 49%
03:00 +27°C° 0 mm 5 m/S 735 mmHg 50%
04:00 +27°C° 0 mm 5 m/S 735 mmHg 50%
05:00 +27°C° 0 mm 6 m/S 735 mmHg 49%
06:00 +27°C° 0 mm 6 m/S 735 mmHg 48%
07:00 +29°C° 0 mm 6 m/S 735 mmHg 44%
08:00 +30°C° 0 mm 6 m/S 735 mmHg 39%
09:00 +32°C° 0 mm 6 m/S 735 mmHg 34%
10:00 +33°C° 0 mm 6 m/S 735 mmHg 33%
11:00 +34°C° 0 mm 5 m/S 735 mmHg 31%
12:00 +35°C° 0 mm 5 m/S 735 mmHg 30%
13:00 +34°C° 0 mm 6 m/S 735 mmHg 30%
14:00 +34°C° 0 mm 6 m/S 734 mmHg 31%
15:00 +34°C° 0 mm 6 m/S 734 mmHg 31%
16:00 +33°C° 0 mm 6 m/S 734 mmHg 34%
17:00 +32°C° 0 mm 7 m/S 734 mmHg 36%
18:00 +30°C° 0 mm 7 m/S 734 mmHg 39%
19:00 +30°C° 0 mm 6 m/S 734 mmHg 41%
20:00 +29°C° 0 mm 6 m/S 734 mmHg 43%
21:00 +29°C° 0 mm 6 m/S 734 mmHg 45%
22:00 +29°C° 0 mm 5 m/S 735 mmHg 45%
23:00 +28°C° 0 mm 4 m/S 735 mmHg 45%

18 Juli, Samstag

Zeit Temperatur Niederschläge Wind Luftdruck Luftfeuchtigkeit
00:00 +28°C° 0 mm 3 m/S 735 mmHg 46%
01:00 +28°C° 0 mm 3 m/S 735 mmHg 46%
02:00 +28°C° 0 mm 3 m/S 735 mmHg 47%
03:00 +27°C° 0 mm 2 m/S 735 mmHg 48%
04:00 +27°C° 0.1 mm 3 m/S 735 mmHg 47%
05:00 +28°C° 0.1 mm 3 m/S 735 mmHg 47%
06:00 +28°C° 0.1 mm 3 m/S 735 mmHg 46%
07:00 +29°C° 0 mm 4 m/S 736 mmHg 43%
08:00 +30°C° 0 mm 5 m/S 736 mmHg 39%
09:00 +32°C° 0 mm 6 m/S 736 mmHg 36%
10:00 +33°C° 0 mm 7 m/S 736 mmHg 35%
11:00 +33°C° 0 mm 7 m/S 736 mmHg 34%
12:00 +34°C° 0 mm 8 m/S 736 mmHg 33%
13:00 +34°C° 0 mm 9 m/S 736 mmHg 34%
14:00 +34°C° 0 mm 10 m/S 736 mmHg 34%
15:00 +34°C° 0 mm 12 m/S 736 mmHg 35%
16:00 +32°C° 0 mm 12 m/S 736 mmHg 39%
17:00 +31°C° 0 mm 12 m/S 736 mmHg 44%
18:00 +29°C° 0 mm 13 m/S 736 mmHg 48%
19:00 +28°C° 0 mm 12 m/S 737 mmHg 50%
20:00 +27°C° 0 mm 11 m/S 737 mmHg 53%
21:00 +27°C° 0 mm 11 m/S 738 mmHg 55%
22:00 +27°C° 0 mm 10 m/S 738 mmHg 54%
23:00 +27°C° 0 mm 9 m/S 738 mmHg 52%
Mehr zeigen